Time,TemperatureF,DewpointF,PressureIn,WindDirection,WindDirectionDegrees,WindSpeedMPH,WindSpeedGustMPH,Humidity,HourlyPrecipIn,Conditions,Clouds,dailyrainin,SoftwareType,DateUTC
2013-11-15 00:01:00,30.6,25.0,30.34,South,185,0.0,0.0,81,0.00,,,0.00,weatherlink.com 1.10,2013-11-15 05:01:00,
2013-11-15 00:16:00,30.3,25.0,30.34,South,185,0.0,0.0,82,0.00,,,0.00,weatherlink.com 1.10,2013-11-15 05:16:00,
2013-11-15 00:31:00,29.8,25.0,30.34,South,185,0.0,0.0,83,0.00,,,0.00,weatherlink.com 1.10,2013-11-15 05:31:00,
2013-11-15 00:46:00,29.7,25.0,30.34,South,185,0.0,0.0,83,0.00,,,0.00,weatherlink.com 1.10,2013-11-15 05:46:00,
2013-11-15 01:01:00,29.4,25.0,30.33,South,185,0.0,0.0,84,0.00,,,0.00,weatherlink.com 1.10,2013-11-15 06:01:00,
2013-11-15 01:16:00,29.4,26.0,30.34,South,185,0.0,0.0,85,0.00,,,0.00,weatherlink.com 1.10,2013-11-15 06:16:00,
2013-11-15 01:31:00,29.3,25.0,30.33,South,185,0.0,0.0,85,0.00,,,0.00,weatherlink.com 1.10,2013-11-15 06:31:00,
2013-11-15 01:46:00,29.3,25.0,30.33,South,185,0.0,0.0,85,0.00,,,0.00,weatherlink.com 1.10,2013-11-15 06:46:00,
2013-11-15 02:01:00,29.5,26.0,30.33,South,185,0.0,0.0,86,0.00,,,0.00,weatherlink.com 1.10,2013-11-15 07:01:00,
2013-11-15 02:16:00,29.7,26.0,30.32,South,185,0.0,0.0,85,0.00,,,0.00,weatherlink.com 1.10,2013-11-15 07:16:00,
2013-11-15 02:31:00,29.7,26.0,30.32,South,185,0.0,0.0,85,0.00,,,0.00,weatherlink.com 1.10,2013-11-15 07:31:00,
2013-11-15 02:46:00,29.5,26.0,30.33,South,185,0.0,0.0,85,0.00,,,0.00,weatherlink.com 1.10,2013-11-15 07:46:00,
2013-11-15 03:01:00,29.7,26.0,30.33,South,185,0.0,0.0,85,0.00,,,0.00,weatherlink.com 1.10,2013-11-15 08:01:00,
2013-11-15 03:16:00,29.8,26.0,30.33,South,185,0.0,0.0,85,0.00,,,0.00,weatherlink.com 1.10,2013-11-15 08:16:00,
2013-11-15 03:31:00,29.7,26.0,30.32,South,185,0.0,0.0,85,0.00,,,0.00,weatherlink.com 1.10,2013-11-15 08:31:00,
2013-11-15 03:46:00,29.8,26.0,30.31,South,185,0.0,0.0,85,0.00,,,0.00,weatherlink.com 1.10,2013-11-15 08:46:00,
2013-11-15 04:01:00,30.0,26.0,30.31,South,185,0.0,0.0,85,0.00,,,0.00,weatherlink.com 1.10,2013-11-15 09:01:00,
2013-11-15 04:16:00,30.3,26.0,30.31,South,185,0.0,0.0,85,0.00,,,0.00,weatherlink.com 1.10,2013-11-15 09:16:00,
2013-11-15 04:31:00,30.4,27.0,30.31,South,185,0.0,0.0,86,0.00,,,0.00,weatherlink.com 1.10,2013-11-15 09:31:00,
2013-11-15 04:46:00,30.9,27.0,30.31,South,185,0.0,0.0,85,0.00,,,0.00,weatherlink.com 1.10,2013-11-15 09:46:00,
2013-11-15 05:01:00,31.0,27.0,30.31,South,185,0.0,0.0,85,0.00,,,0.00,weatherlink.com 1.10,2013-11-15 10:01:00,
2013-11-15 05:17:00,31.3,27.0,30.31,South,185,0.0,0.0,84,0.00,,,0.00,weatherlink.com 1.10,2013-11-15 10:17:00,
2013-11-15 05:32:00,31.5,27.0,30.31,South,185,0.0,0.0,84,0.00,,,0.00,weatherlink.com 1.10,2013-11-15 10:32:00,
2013-11-15 05:47:00,31.8,28.0,30.31,South,185,0.0,0.0,85,0.00,,,0.00,weatherlink.com 1.10,2013-11-15 10:47:00,
2013-11-15 06:02:00,32.1,28.0,30.31,South,185,0.0,0.0,84,0.00,,,0.00,weatherlink.com 1.10,2013-11-15 11:02:00,
2013-11-15 06:17:00,32.2,28.0,30.31,South,185,0.0,0.0,84,0.00,,,0.00,weatherlink.com 1.10,2013-11-15 11:17:00,
2013-11-15 06:32:00,32.4,28.0,30.32,South,185,0.0,0.0,84,0.00,,,0.00,weatherlink.com 1.10,2013-11-15 11:32:00,
2013-11-15 06:47:00,32.7,28.0,30.33,South,185,0.0,0.0,84,0.00,,,0.00,weatherlink.com 1.10,2013-11-15 11:47:00,
2013-11-15 07:02:00,33.1,29.0,30.32,South,185,0.0,0.0,84,0.00,,,0.00,weatherlink.com 1.10,2013-11-15 12:02:00,
2013-11-15 07:17:00,33.7,29.0,30.32,South,185,0.0,0.0,84,0.00,,,0.00,weatherlink.com 1.10,2013-11-15 12:17:00,
2013-11-15 07:32:00,34.1,30.0,30.32,South,185,0.0,0.0,84,0.00,,,0.00,weatherlink.com 1.10,2013-11-15 12:32:00,
2013-11-15 07:47:00,34.7,30.0,30.33,South,185,0.0,0.0,84,0.00,,,0.00,weatherlink.com 1.10,2013-11-15 12:47:00,
2013-11-15 08:02:00,35.8,31.0,30.33,South,185,0.0,0.0,84,0.00,,,0.00,weatherlink.com 1.10,2013-11-15 13:02:00,
2013-11-15 08:17:00,37.0,33.0,30.32,South,185,0.0,0.0,84,0.00,,,0.00,weatherlink.com 1.10,2013-11-15 13:17:00,
2013-11-15 08:32:00,38.5,34.0,30.34,South,185,0.0,0.0,83,0.00,,,0.00,weatherlink.com 1.10,2013-11-15 13:32:00,
2013-11-15 08:47:00,40.3,35.0,30.34,South,185,0.0,0.0,81,0.00,,,0.00,weatherlink.com 1.10,2013-11-15 13:47:00,
2013-11-15 09:02:00,42.1,36.0,30.35,South,185,0.0,0.0,78,0.00,,,0.00,weatherlink.com 1.10,2013-11-15 14:02:00,
2013-11-15 09:17:00,43.6,36.0,30.35,South,185,0.0,0.0,74,0.00,,,0.00,weatherlink.com 1.10,2013-11-15 14:17:00,
2013-11-15 09:32:00,44.8,34.0,30.35,South,185,0.0,0.0,67,0.00,,,0.00,weatherlink.com 1.10,2013-11-15 14:32:00,
2013-11-15 09:47:00,46.0,35.0,30.35,South,185,0.0,0.0,65,0.00,,,0.00,weatherlink.com 1.10,2013-11-15 14:47:00,
2013-11-15 10:02:00,47.6,36.0,30.34,South,185,0.0,0.0,64,0.00,,,0.00,weatherlink.com 1.10,2013-11-15 15:02:00,
2013-11-15 10:17:00,49.5,36.0,30.34,South,178,0.0,1.0,60,0.00,,,0.00,weatherlink.com 1.10,2013-11-15 15:17:00,
2013-11-15 10:32:00,50.8,36.0,30.34,South,189,0.0,2.0,58,0.00,,,0.00,weatherlink.com 1.10,2013-11-15 15:32:00,
2013-11-15 10:47:00,52.0,37.0,30.33,South,189,0.0,1.0,57,0.00,,,0.00,weatherlink.com 1.10,2013-11-15 15:47:00,
2013-11-15 11:02:00,53.5,38.0,30.34,South,171,1.0,2.0,56,0.00,,,0.00,weatherlink.com 1.10,2013-11-15 16:02:00,
2013-11-15 11:17:00,54.7,37.0,30.32,SE,128,1.0,2.0,52,0.00,,,0.00,weatherlink.com 1.10,2013-11-15 16:17:00,
2013-11-15 11:33:00,54.7,35.0,30.32,SE,128,0.0,1.0,48,0.00,,,0.00,weatherlink.com 1.10,2013-11-15 16:33:00,
2013-11-15 11:48:00,55.3,36.0,30.31,SE,128,0.0,1.0,49,0.00,,,0.00,weatherlink.com 1.10,2013-11-15 16:48:00,
2013-11-15 12:03:00,55.9,36.0,30.29,SE,128,0.0,1.0,47,0.00,,,0.00,weatherlink.com 1.10,2013-11-15 17:03:00,
2013-11-15 12:18:00,57.0,36.0,30.28,SE,146,1.0,2.0,46,0.00,,,0.00,weatherlink.com 1.10,2013-11-15 17:18:00,
2013-11-15 12:33:00,57.5,36.0,30.27,SSE,153,0.0,2.0,45,0.00,,,0.00,weatherlink.com 1.10,2013-11-15 17:33:00,
2013-11-15 12:48:00,57.6,37.0,30.27,SSE,151,0.0,1.0,47,0.00,,,0.00,weatherlink.com 1.10,2013-11-15 17:48:00,
2013-11-15 13:03:00,58.3,37.0,30.26,SSE,152,0.0,2.0,46,0.00,,,0.00,weatherlink.com 1.10,2013-11-15 18:03:00,
2013-11-15 13:18:00,58.9,39.0,30.26,SSE,152,0.0,0.0,48,0.00,,,0.00,weatherlink.com 1.10,2013-11-15 18:18:00,
2013-11-15 13:33:00,59.2,41.0,30.24,SSE,151,0.0,1.0,51,0.00,,,0.00,weatherlink.com 1.10,2013-11-15 18:33:00,
2013-11-15 13:48:00,59.3,41.0,30.23,SSE,151,0.0,0.0,52,0.00,,,0.00,weatherlink.com 1.10,2013-11-15 18:48:00,
2013-11-15 14:03:00,59.5,42.0,30.22,SSE,152,0.0,1.0,52,0.00,,,0.00,weatherlink.com 1.10,2013-11-15 19:03:00,
2013-11-15 14:18:00,59.6,42.0,30.21,SSE,152,1.0,1.0,53,0.00,,,0.00,weatherlink.com 1.10,2013-11-15 19:18:00,
2013-11-15 14:33:00,59.6,45.0,30.20,ESE,119,0.0,2.0,59,0.00,,,0.00,weatherlink.com 1.10,2013-11-15 19:33:00,
2013-11-15 14:48:00,59.5,44.0,30.19,ESE,119,1.0,3.0,58,0.00,,,0.00,weatherlink.com 1.10,2013-11-15 19:48:00,
2013-11-15 15:03:00,59.5,45.0,30.20,South,174,0.0,1.0,60,0.00,,,0.00,weatherlink.com 1.10,2013-11-15 20:03:00,
2013-11-15 15:18:00,59.5,45.0,30.20,South,174,0.0,0.0,59,0.00,,,0.00,weatherlink.com 1.10,2013-11-15 20:18:00,
2013-11-15 15:33:00,59.5,46.0,30.20,South,174,0.0,1.0,61,0.00,,,0.00,weatherlink.com 1.10,2013-11-15 20:33:00,
2013-11-15 15:48:00,59.2,46.0,30.20,South,174,0.0,1.0,63,0.00,,,0.00,weatherlink.com 1.10,2013-11-15 20:48:00,
2013-11-15 16:03:00,59.0,47.0,30.19,South,174,0.0,0.0,64,0.00,,,0.00,weatherlink.com 1.10,2013-11-15 21:03:00,
2013-11-15 16:18:00,58.7,46.0,30.19,South,174,0.0,0.0,64,0.00,,,0.00,weatherlink.com 1.10,2013-11-15 21:18:00,
2013-11-15 16:33:00,58.6,46.0,30.19,South,174,0.0,1.0,64,0.00,,,0.00,weatherlink.com 1.10,2013-11-15 21:33:00,
2013-11-15 16:48:00,58.4,47.0,30.19,South,174,0.0,0.0,65,0.00,,,0.00,weatherlink.com 1.10,2013-11-15 21:48:00,
2013-11-15 17:03:00,58.1,47.0,30.19,South,174,0.0,0.0,66,0.00,,,0.00,weatherlink.com 1.10,2013-11-15 22:03:00,
2013-11-15 17:18:00,57.8,47.0,30.19,South,174,0.0,0.0,67,0.00,,,0.00,weatherlink.com 1.10,2013-11-15 22:18:00,
2013-11-15 17:33:00,57.3,47.0,30.20,South,174,0.0,0.0,68,0.00,,,0.00,weatherlink.com 1.10,2013-11-15 22:33:00,
2013-11-15 17:48:00,56.5,46.0,30.19,South,174,0.0,0.0,69,0.00,,,0.00,weatherlink.com 1.10,2013-11-15 22:48:00,
2013-11-15 18:03:00,56.0,46.0,30.20,South,174,0.0,0.0,70,0.00,,,0.00,weatherlink.com 1.10,2013-11-15 23:03:00,
2013-11-15 18:18:00,55.6,46.0,30.19,South,174,0.0,0.0,71,0.00,,,0.00,weatherlink.com 1.10,2013-11-15 23:18:00,
2013-11-15 18:33:00,55.3,46.0,30.19,South,174,0.0,0.0,72,0.00,,,0.00,weatherlink.com 1.10,2013-11-15 23:33:00,
2013-11-15 18:48:00,55.0,46.0,30.20,South,174,0.0,0.0,72,0.00,,,0.00,weatherlink.com 1.10,2013-11-15 23:48:00,
2013-11-15 19:03:00,54.8,46.0,30.20,South,174,0.0,0.0,73,0.00,,,0.00,weatherlink.com 1.10,2013-11-16 00:03:00,
2013-11-15 19:18:00,54.5,46.0,30.20,South,174,0.0,0.0,73,0.00,,,0.00,weatherlink.com 1.10,2013-11-16 00:18:00,
2013-11-15 19:33:00,54.5,46.0,30.20,South,174,0.0,0.0,74,0.00,,,0.00,weatherlink.com 1.10,2013-11-16 00:33:00,
2013-11-15 19:48:00,54.4,46.0,30.19,South,174,0.0,0.0,74,0.00,,,0.00,weatherlink.com 1.10,2013-11-16 00:48:00,
2013-11-15 20:03:00,54.1,46.0,30.19,South,174,0.0,0.0,75,0.00,,,0.00,weatherlink.com 1.10,2013-11-16 01:03:00,
2013-11-15 20:18:00,53.8,46.0,30.19,South,174,0.0,0.0,76,0.00,,,0.00,weatherlink.com 1.10,2013-11-16 01:18:00,
2013-11-15 20:33:00,53.6,47.0,30.19,South,174,0.0,0.0,77,0.00,,,0.00,weatherlink.com 1.10,2013-11-16 01:33:00,
2013-11-15 20:48:00,53.3,48.0,30.19,South,174,0.0,0.0,81,0.00,,,0.00,weatherlink.com 1.10,2013-11-16 01:48:00,
2013-11-15 21:03:00,52.9,48.0,30.20,South,174,0.0,0.0,82,0.00,,,0.00,weatherlink.com 1.10,2013-11-16 02:03:00,
2013-11-15 21:18:00,52.6,47.0,30.21,South,174,0.0,0.0,82,0.00,,,0.00,weatherlink.com 1.10,2013-11-16 02:18:00,
2013-11-15 21:33:00,52.8,48.0,30.22,South,174,0.0,0.0,83,0.00,,,0.00,weatherlink.com 1.10,2013-11-16 02:33:00,
2013-11-15 21:48:00,52.6,49.0,30.24,South,174,0.0,0.0,88,0.00,,,0.00,weatherlink.com 1.10,2013-11-16 02:48:00,
2013-11-15 22:03:00,52.3,50.0,30.22,South,174,0.0,0.0,91,0.00,,,0.00,weatherlink.com 1.10,2013-11-16 03:03:00,
2013-11-15 22:18:00,52.0,50.0,30.23,South,174,0.0,0.0,92,0.00,,,0.00,weatherlink.com 1.10,2013-11-16 03:18:00,
2013-11-15 22:33:00,51.9,50.0,30.24,South,174,0.0,0.0,93,0.00,,,0.00,weatherlink.com 1.10,2013-11-16 03:33:00,
2013-11-15 22:48:00,51.6,50.0,30.22,South,174,0.0,0.0,93,0.00,,,0.00,weatherlink.com 1.10,2013-11-16 03:48:00,
2013-11-15 23:03:00,51.1,49.0,30.21,South,174,0.0,0.0,93,0.00,,,0.00,weatherlink.com 1.10,2013-11-16 04:03:00,
2013-11-15 23:18:00,51.0,49.0,30.21,South,174,0.0,0.0,94,0.00,,,0.00,weatherlink.com 1.10,2013-11-16 04:18:00,
2013-11-15 23:33:00,50.7,49.0,30.22,South,174,0.0,0.0,94,0.00,,,0.00,weatherlink.com 1.10,2013-11-16 04:33:00,
2013-11-15 23:48:00,50.5,49.0,30.21,South,174,0.0,0.0,94,0.00,,,0.00,weatherlink.com 1.10,2013-11-16 04:48:00,